Location: Asheville, NC
(35.6000°N, 82.5500°W)
Time: 04:30:30
(UTC-05:00)

XW-2D - Pass Details

Date: 06 January 2018
Orbit: 511 x 530 km, 97.5° (Epoch: 17 January)

Event Time Altitude Azimuth Distance (km) Brightness Sun altitude
Rises 05:23:20 0° 39° (NE) 2,649 ? -27.2°
Reaches altitude 10° 05:27:28 10° 84° (E) 1,746 ? -26.4°
Maximum altitude 05:27:58 10° 92° (E) 1,731 ? -26.3°
Drops below altitude 10° 05:28:28 10° 99° (E) 1,743 ? -26.2°
Sets 05:32:33 0° 144° (SE) 2,615 ? -25.3°
